CAPE
1317 1304 1552 1485 1737 1795 1638 1781 1831 1467 1577 2841 3557 3275 2851 2651 2464 2185 2115 1965 1640 1100 1145 999 905 1004 683 504 864 1024 1052 1581 939 735 796 938 585 746 813 1329 1525 1572 1122
1117 1462 1523 1525 1777 1248 1346 1597 1207 1077 2327 3227 3603 3588 3175 3049 2910 2606 2322 1956 1735 1015 763 327 100 89 105 485 1206 804 879 1033 1240 1091 976 1308 600 407 964 1020 1418 1563 1533
1470 1432 1371 1461 1204 1028 1036 1261 1039 1592 1968 3109 3704 3701 3602 3590 3393 3212 2938 2440 1988 1657 950 604 330 374 355 586 1310 1074 913 1355 1548 1225 912 1249 1308 971 1118 1468 1307 1466 1591
1681 1809 1378 1031 933 788 906 854 761 1169 2178 3830 3916 3962 3957 3969 3701 3546 3350 2811 2375 1970 1482 1119 1212 1090 1051 1240 1137 1474 1782 1544 1222 1563 1322 1156 1210 1025 849 907 1337 1603 1675
2192 1651 909 803 720 753 989 1277 1657 2100 2901 3941 4139 4084 4093 3929 3433 3157 3009 2539 2736 2500 1707 1588 1494 1328 1142 878 507 291 464 1114 1337 1351 1200 1082 662 511 558 294 388 997 1088
1213 917 966 1649 3702 3696 3615 3750 3789 3823 3929 3990 3969 3892 4013 3540 2032 1871 1431 1446 1720 1704 1854 1985 1771 1793 1146 240 141 8 48 598 977 1108 1401 1505 781 353 349 372 296 597 865
1501 2830 3770 4108 3881 3622 3516 3402 3282 3234 3248 3245 3165 3188 3168 3036 1983 1190 728 994 1317 1727 1478 1191 1148 907 301 540 690 335 146 59 320 1199 1621 1580 1084 305 353 188 322 793 510
3677 3738 3720 3490 2728 2034 1806 1585 1647 1813 2075 2395 2625 2751 2751 2590 1441 957 676 934 1098 1213 1445 1484 969 667 562 316 221 780 1055 1248 1250 932 706 1051 1400 899 538 562 478 439 899
2933 2467 1938 1514 1201 823 538 244 207 232 313 280 358 573 677 864 389 31 0 723 1636 1787 1690 1285 511 325 398 116 0 47 825 799 920 1195 1276 1036 877 384 286 239 163 211 260
2136 1610 1026 604 313 121 95 95 106 54 0 0 0 0 0 0 0 0 0 0 0 166 999 1561 893 180 116 40 0 263 646 795 901 908 669 255 346 451 116 33 25 52 178
1322 625 295 157 0 58 140 199 153 76 4 0 0 0 0 0 0 0 0 0 0 0 0 0 365 826 414 35 0 326 754 908 777 1235 975 904 888 394 316 35 85 104 248
480 295 231 227 143 5 71 107 92 74 16 0 0 0 0 0 0 0 0 0 0 0 0 0 0 0 138 334 262 458 372 285 740 566 475 475 298 478 444 571 260 168 488
281 309 428 402 333 324 226 99 11 0 0 0 0 0 0 0 0 0 0 0 0 0 0 0 0 0 0 0 0 0 17 679 976 663 552 440 173 219 290 752 744 1526 1323
325 546 621 578 340 142 35 0 0 0 0 0 0 0 0 0 0 0 1 4 1 2 1 12 3 0 0 0 0 0 57 265 833 911 582 667 560 174 719 487 562 638 667
468 558 369 64 8 0 0 0 0 0 0 0 0 0 0 0 0 0 0 0 0 0 0 0 0 0 0 0 0 0 0 2 273 779 1060 755 926 740 486 351 246 409 628
186 84 2 0 0 0 0 0 0 0 0 0 0 0 0 0 0 0 0 0 0 0 0 0 0 0 0 0 0 0 0 19 69 98 435 938 878 855 1051 661 412 517 631
40 3 0 0 0 0 0 4 12 11 0 0 0 0 0 0 0 0 0 0 0 0 0 0 0 0 0 0 0 0 0 0 2 48 92 141 382 795 1019 930 792 825 824
10 0 0 0 0 6 13 25 16 4 1 0 0 0 0 0 0 0 0 0 0 0 0 0 0 0 0 1 18 22 7 0 0 3 16 23 51 166 538 844 939 845 913
56 21 46 50 36 14 5 10 5 0 0 0 0 0 0 0 0 0 0 1 5 6 4 4 6 12 14 10 8 32 47 23 1 3 24 35 40 33 82 402 453 565 852
56 46 3 3 12 6 1 0 0 0 0 0 0 1 0 1 0 0 2 3 1 5 5 6 6 8 0 1 22 25 47 60 16 4 19 58 87 82 60 75 221 509 818
16 1 0 0 0 0 0 0 0 0 0 1 2 0 0 1 3 1 1 4 5 5 5 5 2 2 0 0 6 23 49 77 68 61 52 165 346 230 314 309 186 615 742
0 0 0 0 0 0 0 0 1 3 5 2 3 2 0 1 3 4 4 4 5 4 3 3 4 1 1 0 0 10 37 73 121 71 76 206 405 507 298 224 227 391 502
0 0 0 0 0 0 1 3 4 2 2 2 2 3 3 4 3 2 4 3 4 5 6 10 6 4 1 1 0 4 63 124 218 263 332 494 499 489 442 569 653 327 150
0 0 0 0 2 5 4 2 1 1 2 3 4 4 4 3 2 3 3 2 3 2 8 8 2 2 2 0 2 0 32 135 286 415 468 548 560 648 677 711 677 639 620
0 0 2 5 6 2 0 1 1 2 2 2 2 2 2 3 3 2 2 2 2 2 1 2 4 4 2 0 2 4 0 0 3 4 156 458 492 507 515 533 554 576 807
2 3 3 2 0 1 2 1 1 2 3 2 2 4 3 2 2 2 2 2 2 2 1 1 2 2 2 2 0 0 0 0 0 0 0 23 123 173 173 276 337 412 509
CIN
-183 -167 -131 -77 -79 -137 -135 -97 -73 -117 -121 -25 -4 -24 -53 -29 -12 -23 -23 -16 -14 -18 -1 -5 0 -3 -43 -50 -5 -7 -5 -1 -8 -29 -5 -34 -42 -27 -31 -13 -1 -1 -8
-175 -198 -171 -115 -86 -102 -121 -108 -163 -173 -63 -6 -5 -5 -46 -29 -5 -7 -18 -16 -11 -37 -49 -93 -108 -121 -102 -58 -21 -37 -24 -3 -1 -30 -19 -14 -61 -71 -19 -31 -14 0 -1
-137 -152 -147 -148 -165 -150 -142 -142 -170 -118 -101 -9 -1 -4 -10 -4 -2 0 -3 -10 -14 -14 -54 -89 -133 -111 -111 -75 -5 -29 -18 -3 -1 -9 -28 -4 -2 -34 -6 0 -24 -23 -2
-120 -110 -137 -170 -179 -202 -180 -192 -216 -175 -82 0 0 0 0 0 0 0 0 -1 -7 -10 -32 -51 -43 -57 -66 -41 -35 -7 -1 -1 -3 0 -1 -2 -4 -2 -16 -10 -1 -1 -2
-144 -174 -246 -263 -227 -220 -211 -196 -168 -103 -19 0 0 0 0 0 -1 -1 -1 0 0 0 -33 -43 -45 -62 -88 -111 -153 -179 -122 -27 -6 -6 -6 -6 -16 -25 -5 -33 -50 -10 -21
-305 -302 -273 -193 -4 -1 -3 0 0 0 0 0 0 -1 0 0 -46 -76 -88 -59 -32 -32 -15 -10 -27 -36 -121 -308 -351 -437 -346 -123 -12 -5 -5 -1 -30 -68 -36 -31 -26 -35 -15
-247 -73 -5 0 0 -6 -10 -9 -8 -7 -6 -3 -2 -2 0 -2 -57 -146 -220 -150 -80 -33 -49 -70 -62 -55 -198 -160 -160 -272 -319 -310 -177 -33 -4 -1 -5 -19 -37 -72 -38 -26 -39
-18 -12 -12 -18 -56 -93 -92 -97 -91 -79 -52 -23 -6 -6 -5 -1 -96 -160 -231 -150 -99 -74 -48 -51 -100 -117 -126 -179 -212 -104 -61 -36 -64 -105 -119 -49 -1 -14 -22 -32 -66 -64 -55
-78 -99 -125 -134 -135 -173 -216 -292 -308 -291 -250 -235 -178 -149 -130 -110 -234 -195 0 -126 -22 -18 -28 -72 -158 -187 -162 -225 0 -191 -85 -69 -42 -55 -57 -67 -61 -102 -71 -60 -58 -69 -81
-87 -118 -191 -237 -269 -345 -376 -388 -375 -410 0 0 0 0 0 0 0 0 0 0 0 -121 -40 -19 -127 -248 -225 -251 0 -169 -113 -72 -31 -48 -104 -162 -169 -109 -187 -99 -85 -59 -69
-144 -246 -301 -329 0 -392 -321 -269 -333 -392 -162 -1 0 0 0 0 0 0 0 0 0 0 0 0 -35 -31 -159 -83 0 -191 -105 -66 -60 -22 -37 -23 -19 -78 -81 -174 -117 -74 -49
-234 -275 -289 -268 -281 -84 -297 -278 -291 -363 -511 -223 0 0 0 0 0 0 0 0 0 0 0 0 0 0 -207 -194 -188 -177 -207 -223 -100 -72 -42 -46 -41 -36 -94 -133 -164 -137 -70
-271 -224 -194 -171 -176 -203 -228 -264 -281 0 0 0 0 0 0 0 0 0 0 0 0 0 0 0 0 0 0 0 0 0 -330 -77 -45 -44 -57 -37 -44 -36 -75 -87 -95 -52 -88
-208 -156 -122 -89 -169 -277 -329 0 0 0 0 0 0 0 0 0 0 0 -1 -3 -32 -37 -1 -8 -8 0 0 0 0 0 -185 -97 -8 -5 -32 -18 -17 -20 -40 -75 -69 -82 -91
-135 -97 -134 -196 -144 -133 0 0 0 0 0 0 0 0 0 0 0 0 0 0 0 0 0 0 0 0 0 0 0 0 0 -28 -41 -7 -3 -13 -2 -4 -9 -40 -61 -40 -29
-136 -118 -20 0 0 0 0 0 0 0 0 0 0 0 0 0 0 0 0 0 0 0 0 0 0 0 0 0 0 0 0 -46 -120 -63 -20 -2 -2 -3 -4 -9 -36 -39 -18
-178 -212 0 0 0 0 0 -1 -2 -2 0 0 0 0 0 0 0 0 0 0 0 0 0 0 0 0 0 -1 -2 0 0 0 -4 -136 -67 -39 -3 -1 -1 -1 -4 -3 -3
-170 0 0 0 -1 -3 -2 -2 -2 -2 -3 0 0 0 0 0 0 0 0 0 0 0 0 0 -1 0 0 -1 -2 -2 -4 -1 0 -2 -5 -2 -52 -8 -2 -2 -2 -4 -2
-98 -92 -63 -68 -112 -73 -2 -3 -3 0 0 0 0 0 0 0 0 0 0 -1 -1 -1 -2 -2 -2 0 -2 -3 -4 -3 -3 -3 -1 -3 -4 -4 -5 -3 -23 -3 -1 -6 -4
-40 -68 -35 -2 -1 -2 -4 0 0 0 0 0 0 -1 0 -1 0 0 -1 -1 0 -1 -1 0 -1 -1 0 -4 -6 -4 -3 -1 -3 -4 -3 -4 -57 -65 -2 -27 -2 0 -3
-2 -2 0 0 0 0 0 0 0 0 0 -1 -1 -1 0 0 0 0 0 -1 0 -1 -1 -1 -2 0 0 0 -30 -15 -1 -4 -2 -5 -2 -4 -3 -1 -2 -2 -23 -2 -2
0 0 0 0 0 0 0 0 -1 -1 0 0 0 0 0 0 0 0 0 0 0 0 0 0 0 0 0 0 0 -5 -8 -5 -2 -3 -5 -2 -1 0 -1 -3 -4 -2 -3
0 0 0 0 0 0 -1 -1 0 0 0 0 0 0 0 0 0 0 0 0 0 0 0 0 0 0 -1 0 0 0 0 -10 -4 -6 -6 -2 -2 -4 -4 -3 -2 -2 -2
0 0 0 -1 -1 0 0 0 0 0 0 0 0 0 0 0 0 0 0 0 0 0 0 0 0 0 -2 0 0 0 -13 -7 -2 -4 -1 -2 -3 -3 -5 -2 -1 -1 -2
0 -1 -1 0 0 0 0 0 0 0 0 0 0 0 0 0 0 0 0 0 0 0 0 0 0 0 0 0 0 -8 0 0 -69 -11 -48 -3 -2 -1 -1 -3 -1 -1 0
-1 0 0 0 0 0 0 0 0 0 0 0 0 0 0 0 0 0 0 0 0 0 0 0 0 0 0 0 0 0 0 0 0 0 0 -31 -13 -2 -2 -2 -2 -1 -1
Wind_Speed
14 11 8 5 6 13 5 7 10 5 3 1 3 5 11 11 11 12 14 17 18 20 23 22 16 12 16 18 19 20 19 20 22 21 21 18 17 14 13 9 8 3 3
14 11 8 5 7 15 22 20 10 3 3 3 4 4 10 11 11 11 15 17 17 17 17 15 14 13 15 18 19 22 28 25 22 25 24 21 18 17 8 6 15 19 5
13 11 9 8 10 12 15 12 4 2 4 5 6 7 9 10 11 11 12 15 15 15 12 9 7 11 15 18 16 18 18 15 12 8 18 19 16 12 7 11 9 15 31
12 10 8 8 9 8 7 5 2 3 5 6 9 10 10 10 11 12 12 12 12 13 11 8 6 4 6 13 13 13 11 14 13 12 12 17 15 14 15 17 17 15 29
8 7 7 7 6 4 2 0 2 2 5 9 11 13 13 12 14 13 12 13 13 14 11 9 7 5 4 4 8 11 15 15 17 12 8 14 16 21 18 18 22 25 28
8 7 7 7 8 10 11 11 11 11 11 12 14 16 16 16 18 20 17 16 16 17 16 13 12 9 5 3 6 8 12 19 19 18 21 20 14 12 15 20 24 23 25
10 11 11 12 13 14 16 17 18 19 19 18 18 18 19 19 19 20 19 19 18 17 19 20 19 15 10 15 15 14 10 7 7 12 18 22 19 11 10 12 14 13 16
12 13 13 15 17 19 21 22 23 23 23 23 22 20 20 20 20 21 21 22 22 19 20 20 19 17 14 18 21 21 18 16 9 8 9 18 19 14 14 15 16 23 24
11 12 14 17 19 22 24 25 26 27 27 26 24 24 24 23 24 24 23 24 23 23 24 23 20 19 15 16 22 24 21 19 18 13 15 17 16 12 14 16 18 20 27
12 14 15 18 20 25 26 28 28 29 29 29 29 27 26 26 26 25 27 28 28 29 28 24 21 19 21 19 22 24 23 22 20 17 15 15 13 11 7 15 15 15 18
13 14 16 19 22 25 28 33 35 35 35 34 33 32 31 29 29 29 29 30 31 32 32 31 30 23 21 23 24 25 24 28 23 19 18 18 16 11 10 5 6 4 9
14 16 21 22 23 26 26 30 36 37 38 37 33 32 31 28 27 26 25 28 31 32 33 34 35 33 32 32 31 30 31 31 26 23 21 19 18 14 10 5 3 6 6
16 20 24 24 26 27 28 31 33 34 35 36 34 34 33 30 29 27 26 27 28 29 32 35 39 41 39 39 35 32 32 31 29 26 24 22 21 18 12 10 7 6 9
22 23 23 27 29 32 31 33 36 38 37 37 36 36 36 34 31 30 31 31 30 30 30 32 31 32 35 37 39 34 32 30 30 29 28 26 23 20 17 14 12 11 12
25 23 25 28 31 35 34 34 35 35 35 37 37 38 38 39 34 34 36 38 39 41 46 43 40 39 38 36 34 31 32 31 28 29 30 29 27 24 21 19 17 16 17
22 24 29 32 33 35 38 37 31 30 32 31 33 35 37 38 41 42 43 44 45 46 45 40 38 36 37 38 37 35 34 29 28 30 28 29 29 27 25 23 21 20 19
28 30 34 36 38 39 37 38 39 38 34 33 32 32 34 38 44 46 47 48 47 43 42 41 40 38 37 38 37 36 35 34 33 30 29 30 30 28 27 26 24 23 24
32 33 34 35 36 35 36 38 40 41 43 41 37 36 39 42 42 41 42 45 45 37 37 39 40 41 39 38 36 36 35 34 34 34 34 31 31 32 29 29 26 27 26
33 34 35 35 35 36 37 36 38 40 42 44 44 43 42 44 44 44 41 40 41 41 41 42 42 40 37 36 37 36 34 36 35 34 33 33 32 31 33 31 31 27 24
31 29 31 33 35 37 37 38 40 41 43 44 46 46 46 44 45 46 44 42 41 42 42 43 43 42 43 42 39 35 35 34 34 35 36 36 33 32 34 32 30 30 26
30 32 34 34 35 37 39 40 41 43 44 44 42 43 42 44 45 45 45 43 42 41 41 42 42 41 41 41 41 40 36 34 33 33 33 33 33 35 33 33 31 29 27
29 31 33 35 36 37 38 40 40 38 37 37 36 37 39 39 40 41 41 42 42 41 41 41 40 38 38 39 40 40 39 35 32 31 30 31 32 32 29 29 29 29 25
30 33 35 36 37 40 39 37 36 34 32 30 31 34 37 38 39 40 41 39 41 38 33 34 35 34 34 34 34 38 35 31 29 30 29 30 29 29 29 25 27 27 26
33 36 37 38 39 38 33 32 29 27 27 30 31 33 36 39 38 36 35 34 31 30 25 25 25 24 32 33 34 39 40 36 28 26 26 26 33 31 32 31 29 29 27
35 37 37 39 38 33 29 27 27 29 33 32 34 34 32 31 33 32 34 36 31 8 14 16 10 18 28 31 32 34 22 26 26 26 26 26 27 29 28 27 27 26 26
34 35 36 36 31 27 26 27 29 31 32 31 30 26 30 31 28 23 25 27 24 26 22 21 19 19 18 19 20 22 24 28 30 31 32 33 35 35 30 29 28 27 28
Wind_Direction
170 165 157 162 193 191 240 200 322 199 216 273 27 29 14 8 6 2 358 355 358 360 5 11 9 353 320 316 314 311 313 309 312 320 319 326 322 328 325 334 337 343 174
146 139 134 140 131 172 194 198 198 250 325 328 350 359 3 1 0 357 353 351 355 360 11 26 46 39 353 330 324 317 305 307 310 310 311 315 317 318 320 318 310 300 317
137 144 124 103 129 157 178 185 197 308 307 319 333 335 341 346 344 347 350 348 350 355 6 19 30 11 348 337 338 331 327 330 320 314 319 315 318 320 313 316 314 305 268
125 132 115 116 120 133 152 171 214 323 325 320 330 330 330 332 332 336 338 340 344 349 357 359 359 351 346 341 341 339 337 328 327 323 317 317 318 318 311 311 311 305 276
96 93 88 81 81 73 84 66 258 291 327 332 332 332 332 330 328 329 333 332 330 335 341 341 336 319 318 335 350 345 337 331 323 317 305 323 321 317 316 319 310 295 287
67 55 36 32 30 18 10 5 0 354 347 339 333 329 328 328 331 327 325 326 324 324 327 331 331 330 317 278 328 332 333 331 322 316 315 318 318 314 323 313 308 292 294
40 32 32 19 10 3 358 354 351 348 344 341 338 333 329 328 328 325 324 320 319 319 320 323 326 327 329 336 340 343 342 335 328 330 321 317 321 322 324 320 315 305 300
47 28 21 9 357 353 347 342 340 340 340 339 337 336 333 330 330 329 326 321 317 315 314 316 316 316 314 324 329 331 336 341 346 341 331 326 324 331 319 311 312 294 294
22 19 12 356 349 340 337 334 333 332 330 330 331 328 328 326 325 324 323 320 317 314 313 312 311 310 302 306 317 320 322 325 331 330 330 334 335 334 332 321 304 299 286
5 9 4 354 347 333 334 329 328 326 325 325 324 323 321 319 319 317 316 313 310 308 308 308 305 300 303 300 304 310 312 315 315 321 325 326 332 332 339 334 332 300 279
349 358 357 348 345 338 332 321 317 318 318 319 319 319 317 315 315 314 312 310 307 305 303 303 304 300 295 298 298 300 301 305 308 307 307 311 318 328 324 332 350 331 296
346 345 340 339 341 339 338 329 319 318 316 317 318 318 319 318 316 314 313 311 308 305 303 301 299 301 299 297 297 296 296 296 296 296 297 298 299 301 311 312 190 172 213
333 332 330 331 334 334 332 329 325 322 320 319 319 318 317 319 319 317 313 311 310 307 305 303 299 296 297 296 294 291 290 289 288 287 286 288 292 291 290 290 273 274 287
323 329 330 328 328 328 327 324 321 317 316 315 316 315 315 317 319 318 316 313 311 309 306 305 304 303 300 297 294 293 290 286 283 282 282 284 286 283 281 279 281 282 289
322 328 326 326 326 324 322 322 319 316 315 312 312 312 311 309 314 314 311 309 306 304 301 301 300 299 298 296 295 292 291 286 283 281 280 279 278 276 274 276 274 278 282
327 326 324 323 323 322 319 319 318 313 313 314 312 310 309 307 307 307 305 304 302 300 299 299 298 297 296 295 292 291 288 285 283 281 279 277 274 273 273 274 273 272 274
323 322 321 320 320 319 319 318 316 315 314 313 313 311 309 309 308 306 305 303 301 300 296 295 293 292 291 290 290 289 287 285 283 279 279 276 274 272 272 271 271 271 274
320 320 320 322 321 321 320 319 317 315 314 315 316 315 313 312 311 311 310 308 303 302 298 297 295 291 288 286 286 286 286 285 282 278 277 276 274 273 271 272 269 272 272
322 321 322 322 321 320 319 319 318 317 316 314 315 315 315 314 311 310 309 307 305 303 301 298 296 295 291 288 285 283 282 283 282 279 276 275 274 273 272 273 274 269 268
325 327 325 323 322 321 321 320 319 318 317 315 314 313 314 314 311 310 308 306 303 301 301 298 296 293 290 289 288 283 281 280 279 277 275 275 275 272 273 272 271 273 271
328 327 326 325 324 323 321 320 319 318 318 317 317 316 315 314 312 311 308 306 304 303 302 300 298 294 289 287 283 283 281 279 278 277 275 274 275 272 274 275 274 275 274
331 330 329 327 326 325 323 322 322 323 324 324 325 324 322 320 318 316 313 310 308 305 302 301 300 295 291 286 283 281 280 277 274 275 275 274 273 271 271 274 274 276 274
334 332 330 328 328 325 324 327 326 328 330 333 334 333 330 328 325 322 318 315 313 311 308 306 304 298 293 288 281 279 277 274 274 276 277 272 273 272 272 272 276 278 278
334 331 329 329 328 328 331 333 336 339 342 340 342 341 337 334 335 333 329 324 324 321 322 322 316 309 292 275 275 252 242 262 276 277 278 275 268 272 272 276 278 282 284
334 333 334 332 332 334 337 343 344 343 337 347 348 351 355 355 352 349 340 313 285 360 355 352 5 320 270 254 259 232 275 274 277 280 280 279 277 276 278 280 282 285 285
342 341 340 336 338 340 342 343 317 342 348 357 4 16 14 18 22 329 310 314 310 340 1 333 303 280 274 268 280 282 275 271 270 271 273 273 272 275 281 283 284 285 287